Weather in Velikie Ozera

Ukraine / Rovno District     51°33′42″N   26°54′31″E
temp.,
°C
wind,
m/s
gust,
m/s
humid.,
%
clouds,
%
prec.,
mm/h
press.,
hPa
HPBL,
m
15 april, thu
thu1500:00+7wnw2396100 0.6 1014168
03:00+7w1196100 0.9 101578
06:00+6nnw2395100 0.0 1014137
09:00+7nnw3493100 0.1 1015219
12:00+9nw3482100 0.2 1014586
15:00+11wnw4674100 0.4 1014805
18:00+10wnw5976100 0.1 1013662
21:00+8nw4790100 0.6 1013469
16 april, fri
fri1600:00+7wnw3694100 0.6 1012352
03:00+6w4795100 1.3 1012380
06:00+5w4896100 4.6 1012331
09:00+5w4794100 5.1 1013380
12:00+5w4594100 0.0 1013428
15:00+5wsw4595100 0.1 1014346
18:00+4wsw469698 0.1 1015317
21:00+3sw3597100 0.2 1016273
17 april, sat
sat1700:00+3sw2498100 0.0 1017265
03:00+3ssw2398100 0.1 1018258
06:00+3s2498100 0.0 1019248
09:00+4sse2396100 0.0 1020286
12:00+5se2386100 0.1 1021594
15:00+7sse337699 0.1 1022891
18:00+7s237986 0.0 1022558
21:00+4sw119313 0.0 102320
18 april, sun
sun1800:00+3sw119569 0.0 102312
03:00+2n119580 0.0 102310
06:00+2ne119383 0.0 102310
09:00+7ene117882 0.0 1023207
12:00+12ne226388 0.0 1022750
15:00+13e226565 0.0 1022995
18:00+12e357292 0.0 1022316
21:00+9e3688100 0.1 1022105
19 april, mon
mon1900:00+10e3790100 0.1 1022257
03:00+9e3793100 0.3 1022220
06:00+8e4893100 0.2 1022237
09:00+9ese4990100 0.4 1022366
12:00+11ese5876100 0.3 1022733
15:00+12ese6969100 0.7 10221170
18:00+11ese5974100 0.2 1021989
21:00+10ese41074100 0.3 1021434